Year,Month,Day,Hour,Minute,Value (Times are PST for temperature in C)
2014,10,15,00,00,9.60
2014,10,15,00,01,9.60
2014,10,15,00,02,9.60
2014,10,15,00,03,9.60
2014,10,15,00,04,9.60
2014,10,15,00,05,9.60
2014,10,15,00,06,9.60
2014,10,15,00,07,9.60
2014,10,15,00,08,9.60
2014,10,15,00,09,9.60
2014,10,15,00,10,9.60
2014,10,15,00,11,9.70
2014,10,15,00,12,9.70
2014,10,15,00,13,9.70
2014,10,15,00,14,9.70
2014,10,15,00,15,9.70
2014,10,15,00,16,9.70
2014,10,15,00,17,9.70
2014,10,15,00,18,9.70
2014,10,15,00,19,9.70
2014,10,15,00,20,9.70
2014,10,15,00,21,9.70
2014,10,15,00,22,9.70
2014,10,15,00,23,9.70
2014,10,15,00,24,9.70
2014,10,15,00,25,9.70
2014,10,15,00,26,9.70
2014,10,15,00,27,9.70
2014,10,15,00,28,9.70
2014,10,15,00,29,9.70
2014,10,15,00,30,9.70
2014,10,15,00,31,9.70
2014,10,15,00,32,9.70
2014,10,15,00,33,9.70
2014,10,15,00,34,9.70
2014,10,15,00,35,9.70
2014,10,15,00,36,9.80
2014,10,15,00,37,9.80
2014,10,15,00,38,9.80
2014,10,15,00,39,9.80
2014,10,15,00,40,9.80
2014,10,15,00,41,9.80
2014,10,15,00,42,9.80
2014,10,15,00,43,9.80
2014,10,15,00,44,9.80
2014,10,15,00,45,9.80
2014,10,15,00,46,9.80
2014,10,15,00,47,9.80
2014,10,15,00,48,9.80
2014,10,15,00,49,9.90
2014,10,15,00,50,9.90
2014,10,15,00,51,9.80
2014,10,15,00,52,9.90
2014,10,15,00,53,9.80
2014,10,15,00,54,9.80
2014,10,15,00,55,9.80
2014,10,15,00,56,9.80
2014,10,15,00,57,9.80
2014,10,15,00,58,9.80
2014,10,15,00,59,9.80
2014,10,15,01,00,9.80
2014,10,15,01,01,9.80
2014,10,15,01,02,9.80
2014,10,15,01,03,9.80
2014,10,15,01,04,9.80
2014,10,15,01,05,9.80
2014,10,15,01,06,9.80
2014,10,15,01,07,9.80
2014,10,15,01,08,9.80
2014,10,15,01,09,9.80
2014,10,15,01,10,9.80
2014,10,15,01,11,9.80
2014,10,15,01,12,9.80
2014,10,15,01,13,9.80
2014,10,15,01,14,9.80
2014,10,15,01,15,9.80
2014,10,15,01,16,9.80
2014,10,15,01,17,9.80
2014,10,15,01,18,9.80
2014,10,15,01,19,9.80
2014,10,15,01,20,9.80
2014,10,15,01,21,9.80
2014,10,15,01,22,9.80
2014,10,15,01,23,9.80
2014,10,15,01,24,9.70
2014,10,15,01,25,9.70
2014,10,15,01,26,9.70
2014,10,15,01,27,9.70
2014,10,15,01,28,9.70
2014,10,15,01,29,9.70
2014,10,15,01,30,9.70
2014,10,15,01,31,9.70
2014,10,15,01,32,9.70
2014,10,15,01,33,9.70
2014,10,15,01,34,9.80
2014,10,15,01,35,9.80
2014,10,15,01,36,9.80
2014,10,15,01,37,9.80
2014,10,15,01,38,9.80
2014,10,15,01,39,9.80
2014,10,15,01,40,9.80
2014,10,15,01,41,9.80
2014,10,15,01,42,9.80
2014,10,15,01,43,9.80
2014,10,15,01,44,9.90
2014,10,15,01,45,9.90
2014,10,15,01,46,9.90
2014,10,15,01,47,9.90
2014,10,15,01,48,9.90
2014,10,15,01,49,9.90
2014,10,15,01,50,9.90
2014,10,15,01,51,9.90
2014,10,15,01,52,9.90
2014,10,15,01,53,9.90
2014,10,15,01,54,9.90
2014,10,15,01,55,10.00
2014,10,15,01,56,10.00
2014,10,15,01,57,10.00
2014,10,15,01,58,10.00
2014,10,15,01,59,10.00
2014,10,15,02,00,10.00
2014,10,15,02,01,10.00
2014,10,15,02,02,10.00
2014,10,15,02,03,10.00
2014,10,15,02,04,10.00
2014,10,15,02,05,10.00
2014,10,15,02,06,10.00
2014,10,15,02,07,10.00
2014,10,15,02,08,10.00
2014,10,15,02,09,10.10
2014,10,15,02,10,10.10
2014,10,15,02,11,10.10
2014,10,15,02,12,10.10
2014,10,15,02,13,10.10
2014,10,15,02,14,10.10
2014,10,15,02,15,10.10
2014,10,15,02,16,10.10
2014,10,15,02,17,10.10
2014,10,15,02,18,10.10
2014,10,15,02,19,10.10
2014,10,15,02,20,10.10
2014,10,15,02,21,10.10
2014,10,15,02,22,10.10
2014,10,15,02,23,10.10
2014,10,15,02,24,10.10
2014,10,15,02,25,10.10
2014,10,15,02,26,10.10
2014,10,15,02,27,10.10
2014,10,15,02,28,10.10
2014,10,15,02,29,10.10
2014,10,15,02,30,10.20
2014,10,15,02,31,10.20
2014,10,15,02,32,10.20
2014,10,15,02,33,10.20
2014,10,15,02,34,10.20
2014,10,15,02,35,10.20
2014,10,15,02,36,10.20
2014,10,15,02,37,10.20
2014,10,15,02,38,10.20
2014,10,15,02,39,10.20
2014,10,15,02,40,10.30
2014,10,15,02,41,10.30
2014,10,15,02,42,10.30
2014,10,15,02,43,10.30
2014,10,15,02,44,10.30
2014,10,15,02,45,10.30
2014,10,15,02,46,10.30
2014,10,15,02,47,10.30
2014,10,15,02,48,10.20
2014,10,15,02,49,10.20
2014,10,15,02,50,10.20
2014,10,15,02,51,10.20
2014,10,15,02,52,10.20
2014,10,15,02,53,10.20
2014,10,15,02,54,10.20
2014,10,15,02,55,10.20
2014,10,15,02,56,10.20
2014,10,15,02,57,10.20
2014,10,15,02,58,10.20
2014,10,15,02,59,10.20
2014,10,15,03,00,10.20
2014,10,15,03,01,10.20
2014,10,15,03,02,10.20
2014,10,15,03,03,10.20
2014,10,15,03,04,10.20
2014,10,15,03,05,10.30
2014,10,15,03,06,10.30
2014,10,15,03,07,10.30
2014,10,15,03,08,10.30
2014,10,15,03,09,10.30
2014,10,15,03,10,10.30
2014,10,15,03,11,10.30
2014,10,15,03,12,10.30
2014,10,15,03,13,10.30
2014,10,15,03,14,10.30
2014,10,15,03,15,10.30
2014,10,15,03,16,10.30
2014,10,15,03,17,10.30
2014,10,15,03,18,10.30
2014,10,15,03,19,10.30
2014,10,15,03,20,10.30
2014,10,15,03,21,10.30
2014,10,15,03,22,10.30
2014,10,15,03,23,10.30
2014,10,15,03,24,10.30
2014,10,15,03,25,10.30
2014,10,15,03,26,10.30
2014,10,15,03,27,10.40
2014,10,15,03,28,10.40
2014,10,15,03,29,10.40
2014,10,15,03,30,10.40
2014,10,15,03,31,10.40
2014,10,15,03,32,10.40
2014,10,15,03,33,10.40
2014,10,15,03,34,10.40
2014,10,15,03,35,10.40
2014,10,15,03,36,10.40
2014,10,15,03,37,10.40
2014,10,15,03,38,10.40
2014,10,15,03,39,10.40
2014,10,15,03,40,10.40
2014,10,15,03,41,10.40
2014,10,15,03,42,10.40
2014,10,15,03,43,10.40
2014,10,15,03,44,10.40
2014,10,15,03,45,10.40
2014,10,15,03,46,10.40
2014,10,15,03,47,10.40
2014,10,15,03,48,10.40
2014,10,15,03,49,10.40
2014,10,15,03,50,10.40
2014,10,15,03,51,10.40
2014,10,15,03,52,10.40
2014,10,15,03,53,10.40
2014,10,15,03,54,10.40
2014,10,15,03,55,10.40
2014,10,15,03,56,10.40
2014,10,15,03,57,10.40
2014,10,15,03,58,10.40
2014,10,15,03,59,10.40
2014,10,15,04,00,10.40
2014,10,15,04,01,10.40
2014,10,15,04,02,10.40
2014,10,15,04,03,10.40
2014,10,15,04,04,10.40
2014,10,15,04,05,10.40
2014,10,15,04,06,10.40
2014,10,15,04,07,10.40
2014,10,15,04,08,10.40
2014,10,15,04,09,10.40
2014,10,15,04,10,10.40
2014,10,15,04,11,10.40
2014,10,15,04,12,10.40
2014,10,15,04,13,10.40
2014,10,15,04,14,10.40
2014,10,15,04,15,10.40
2014,10,15,04,16,10.40
2014,10,15,04,17,10.40
2014,10,15,04,18,10.40
2014,10,15,04,19,10.40
2014,10,15,04,20,10.30
2014,10,15,04,21,10.30
2014,10,15,04,22,10.30
2014,10,15,04,23,10.30
2014,10,15,04,24,10.30
2014,10,15,04,25,10.30
2014,10,15,04,26,10.30
2014,10,15,04,27,10.30
2014,10,15,04,28,10.30
2014,10,15,04,29,10.20
2014,10,15,04,30,10.20
2014,10,15,04,31,10.20
2014,10,15,04,32,10.20
2014,10,15,04,33,10.20
2014,10,15,04,34,10.20
2014,10,15,04,35,10.20
2014,10,15,04,36,10.20
2014,10,15,04,37,10.20
2014,10,15,04,38,10.20
2014,10,15,04,39,10.20
2014,10,15,04,40,10.20
2014,10,15,04,41,10.20
2014,10,15,04,42,10.20
2014,10,15,04,43,10.20
2014,10,15,04,44,10.20
2014,10,15,04,45,10.20
2014,10,15,04,46,10.20
2014,10,15,04,47,10.20
2014,10,15,04,48,10.20
2014,10,15,04,49,10.20
2014,10,15,04,50,10.20
2014,10,15,04,51,10.20
2014,10,15,04,52,10.20
2014,10,15,04,53,10.20
2014,10,15,04,54,10.20
2014,10,15,04,55,10.20
2014,10,15,04,56,10.20
2014,10,15,04,57,10.20
2014,10,15,04,58,10.20
2014,10,15,04,59,10.10
2014,10,15,05,00,10.10
2014,10,15,05,01,10.10
2014,10,15,05,02,10.10
2014,10,15,05,03,10.10
2014,10,15,05,04,10.00
2014,10,15,05,05,10.00
2014,10,15,05,06,10.00
2014,10,15,05,07,9.90
2014,10,15,05,08,9.90
2014,10,15,05,09,9.90
2014,10,15,05,10,9.90
2014,10,15,05,11,9.90
2014,10,15,05,12,9.90
2014,10,15,05,13,9.80
2014,10,15,05,14,9.80
2014,10,15,05,15,9.80
2014,10,15,05,16,9.80
2014,10,15,05,17,9.80
2014,10,15,05,18,9.80
2014,10,15,05,19,9.80
2014,10,15,05,20,9.90
2014,10,15,05,21,9.90
2014,10,15,05,22,9.90
2014,10,15,05,23,9.90
2014,10,15,05,24,9.90
2014,10,15,05,25,9.90
2014,10,15,05,26,9.90
2014,10,15,05,27,9.90
2014,10,15,05,28,9.90
2014,10,15,05,29,9.90
2014,10,15,05,30,9.90
2014,10,15,05,31,9.90
2014,10,15,05,32,9.90
2014,10,15,05,33,9.90
2014,10,15,05,34,9.90
2014,10,15,05,35,10.00
2014,10,15,05,36,10.00
2014,10,15,05,37,10.00
2014,10,15,05,38,10.00
2014,10,15,05,39,10.10
2014,10,15,05,40,10.10
2014,10,15,05,41,10.10
2014,10,15,05,42,10.10
2014,10,15,05,43,10.10
2014,10,15,05,44,10.10
2014,10,15,05,45,10.10
2014,10,15,05,46,10.10
2014,10,15,05,47,10.20
2014,10,15,05,48,10.20
2014,10,15,05,49,10.20
2014,10,15,05,50,10.20
2014,10,15,05,51,10.20
2014,10,15,05,52,10.20
2014,10,15,05,53,10.20
2014,10,15,05,54,10.20
2014,10,15,05,55,10.20
2014,10,15,05,56,10.20
2014,10,15,05,57,10.20
2014,10,15,05,58,10.20
2014,10,15,05,59,10.20
2014,10,15,06,00,10.10
2014,10,15,06,01,10.10
2014,10,15,06,02,10.10
2014,10,15,06,03,10.10
2014,10,15,06,04,10.20
2014,10,15,06,05,10.20
2014,10,15,06,06,10.20
2014,10,15,06,07,10.20
2014,10,15,06,08,10.20
2014,10,15,06,09,10.20
2014,10,15,06,10,10.20
2014,10,15,06,11,10.20
2014,10,15,06,12,10.20
2014,10,15,06,13,10.20
2014,10,15,06,14,10.20
2014,10,15,06,15,10.10
2014,10,15,06,16,10.10
2014,10,15,06,17,10.10
2014,10,15,06,18,10.10
2014,10,15,06,19,10.10
2014,10,15,06,20,10.10
2014,10,15,06,21,10.10
2014,10,15,06,22,10.10
2014,10,15,06,23,10.10
2014,10,15,06,24,10.10
2014,10,15,06,25,10.10
2014,10,15,06,26,10.10
2014,10,15,06,27,10.10
2014,10,15,06,28,10.10
2014,10,15,06,29,10.10
2014,10,15,06,30,10.10
2014,10,15,06,31,10.10
2014,10,15,06,32,10.10
2014,10,15,06,33,10.10
2014,10,15,06,34,10.10
2014,10,15,06,35,10.10
2014,10,15,06,36,10.10
2014,10,15,06,37,10.10
2014,10,15,06,38,10.10
2014,10,15,06,39,10.10
2014,10,15,06,40,10.10
2014,10,15,06,41,10.10
2014,10,15,06,42,10.10
2014,10,15,06,43,10.10
2014,10,15,06,44,10.10
2014,10,15,06,45,10.20
2014,10,15,06,46,10.20
2014,10,15,06,47,10.20
2014,10,15,06,48,10.20
2014,10,15,06,49,10.20
2014,10,15,06,50,10.20
2014,10,15,06,51,10.20
2014,10,15,06,52,10.20
2014,10,15,06,53,10.20
2014,10,15,06,54,10.20
2014,10,15,06,55,10.20
2014,10,15,06,56,10.20
2014,10,15,06,57,10.20
2014,10,15,06,58,10.20
2014,10,15,06,59,10.20
2014,10,15,07,00,10.20
2014,10,15,07,01,10.20
2014,10,15,07,02,10.20
2014,10,15,07,03,10.20
2014,10,15,07,04,10.20
2014,10,15,07,05,10.20
2014,10,15,07,06,10.20
2014,10,15,07,07,10.20
2014,10,15,07,08,10.20
2014,10,15,07,09,10.20
2014,10,15,07,10,10.20
2014,10,15,07,11,10.20
2014,10,15,07,12,10.20
2014,10,15,07,13,10.20
2014,10,15,07,14,10.20
2014,10,15,07,15,10.20
2014,10,15,07,16,10.20
2014,10,15,07,17,10.20
2014,10,15,07,18,10.20
2014,10,15,07,19,10.20
2014,10,15,07,20,10.20
2014,10,15,07,21,10.20
2014,10,15,07,22,10.20
2014,10,15,07,23,10.20
2014,10,15,07,24,10.20
2014,10,15,07,25,10.20
2014,10,15,07,26,10.20
2014,10,15,07,27,10.20
2014,10,15,07,28,10.20
2014,10,15,07,29,10.20
2014,10,15,07,30,10.20
2014,10,15,07,31,10.20
2014,10,15,07,32,10.20
2014,10,15,07,33,10.20
2014,10,15,07,34,10.20
2014,10,15,07,35,10.20
2014,10,15,07,36,10.20
2014,10,15,07,37,10.20
2014,10,15,07,38,10.30
2014,10,15,07,39,10.20
2014,10,15,07,40,10.20
2014,10,15,07,41,10.30
2014,10,15,07,42,10.30
2014,10,15,07,43,10.30
2014,10,15,07,44,10.30
2014,10,15,07,45,10.30
2014,10,15,07,46,10.30
2014,10,15,07,47,10.30
2014,10,15,07,48,10.30
2014,10,15,07,49,10.30
2014,10,15,07,50,10.30
2014,10,15,07,51,10.30
2014,10,15,07,52,10.30
2014,10,15,07,53,10.30
2014,10,15,07,54,10.30
2014,10,15,07,55,10.30
2014,10,15,07,56,10.30
2014,10,15,07,57,10.30
2014,10,15,07,58,10.30
2014,10,15,07,59,10.30
2014,10,15,08,00,10.30
2014,10,15,08,01,10.30
2014,10,15,08,02,10.30
2014,10,15,08,03,10.30
2014,10,15,08,04,10.30
2014,10,15,08,05,10.30
2014,10,15,08,06,10.30
2014,10,15,08,07,10.30
2014,10,15,08,08,10.30
2014,10,15,08,09,10.30
2014,10,15,08,10,10.30
2014,10,15,08,11,10.30
2014,10,15,08,12,10.30
2014,10,15,08,13,10.30
2014,10,15,08,14,10.30
2014,10,15,08,15,10.30
2014,10,15,08,16,10.30
2014,10,15,08,17,10.30
2014,10,15,08,18,10.30
2014,10,15,08,19,10.30
2014,10,15,08,20,10.40
2014,10,15,08,21,10.40
2014,10,15,08,22,10.30
2014,10,15,08,23,10.30
2014,10,15,08,24,10.30
2014,10,15,08,25,10.30
2014,10,15,08,26,10.30
2014,10,15,08,27,10.30
2014,10,15,08,28,10.30
2014,10,15,08,29,10.30
2014,10,15,08,30,10.30
2014,10,15,08,31,10.30
2014,10,15,08,32,10.30
2014,10,15,08,33,10.30
2014,10,15,08,34,10.30
2014,10,15,08,35,10.40
2014,10,15,08,36,10.40
2014,10,15,08,37,10.40
2014,10,15,08,38,10.40
2014,10,15,08,39,10.40
2014,10,15,08,40,10.40
2014,10,15,08,41,10.40
2014,10,15,08,42,10.40
2014,10,15,08,43,10.40
2014,10,15,08,44,10.40
2014,10,15,08,45,10.40
2014,10,15,08,46,10.50
2014,10,15,08,47,10.50
2014,10,15,08,48,10.50
2014,10,15,08,49,10.50
2014,10,15,08,50,10.50
2014,10,15,08,51,10.50
2014,10,15,08,52,10.50
2014,10,15,08,53,10.60
2014,10,15,08,54,10.60
2014,10,15,08,55,10.60
2014,10,15,08,56,10.60
2014,10,15,08,57,10.60
2014,10,15,08,58,10.60
2014,10,15,08,59,10.60
2014,10,15,09,00,10.60
2014,10,15,09,01,10.60
2014,10,15,09,02,10.60
2014,10,15,09,03,10.60
2014,10,15,09,04,10.60
2014,10,15,09,05,10.60
2014,10,15,09,06,10.60
2014,10,15,09,07,10.60
2014,10,15,09,08,10.60
2014,10,15,09,09,10.60
2014,10,15,09,10,10.60
2014,10,15,09,11,10.60
2014,10,15,09,12,10.60
2014,10,15,09,13,10.60
2014,10,15,09,14,10.70
2014,10,15,09,15,10.70
2014,10,15,09,16,10.70
2014,10,15,09,17,10.70
2014,10,15,09,18,10.70
2014,10,15,09,19,10.70
2014,10,15,09,20,10.70
2014,10,15,09,21,10.70
2014,10,15,09,22,10.70
2014,10,15,09,23,10.70
2014,10,15,09,24,10.70
2014,10,15,09,25,10.70
2014,10,15,09,26,10.70
2014,10,15,09,27,10.70
2014,10,15,09,28,10.70
2014,10,15,09,29,10.70
2014,10,15,09,30,10.70
2014,10,15,09,31,10.70
2014,10,15,09,32,10.70
2014,10,15,09,33,10.70
2014,10,15,09,34,10.70
2014,10,15,09,35,10.70
2014,10,15,09,36,10.70
2014,10,15,09,37,10.70
2014,10,15,09,38,10.70
2014,10,15,09,39,10.70
2014,10,15,09,40,10.70
2014,10,15,09,41,10.70
2014,10,15,09,42,10.70
2014,10,15,09,43,10.80
2014,10,15,09,44,10.80
2014,10,15,09,45,10.80
2014,10,15,09,46,10.80
2014,10,15,09,47,10.80
2014,10,15,09,48,10.80
2014,10,15,09,49,10.80
2014,10,15,09,50,10.80
2014,10,15,09,51,10.70
2014,10,15,09,52,10.70
2014,10,15,09,53,10.70
2014,10,15,09,54,10.70
2014,10,15,09,55,10.70
2014,10,15,09,56,10.70
2014,10,15,09,57,10.70
2014,10,15,09,58,10.70
2014,10,15,09,59,10.70
2014,10,15,10,00,10.80
2014,10,15,10,01,10.80
2014,10,15,10,02,10.80
2014,10,15,10,03,10.80
2014,10,15,10,04,10.70
2014,10,15,10,05,10.70
2014,10,15,10,06,10.70
2014,10,15,10,07,10.70
2014,10,15,10,08,10.70
2014,10,15,10,09,10.70
2014,10,15,10,10,10.70
2014,10,15,10,11,10.80
2014,10,15,10,12,10.80
2014,10,15,10,13,10.80
2014,10,15,10,14,10.80
2014,10,15,10,15,10.80
2014,10,15,10,16,10.80
2014,10,15,10,17,10.80
2014,10,15,10,18,10.80
2014,10,15,10,19,10.80
2014,10,15,10,20,10.80
2014,10,15,10,21,10.80
2014,10,15,10,22,10.80
2014,10,15,10,23,10.80
2014,10,15,10,24,10.80
2014,10,15,10,25,10.80
2014,10,15,10,26,10.80
2014,10,15,10,27,10.80
2014,10,15,10,28,10.80
2014,10,15,10,29,10.80
2014,10,15,10,30,10.90
2014,10,15,10,31,10.90
2014,10,15,10,32,10.90
2014,10,15,10,33,10.90
2014,10,15,10,34,10.90
2014,10,15,10,35,10.90
2014,10,15,10,36,10.90
2014,10,15,10,37,10.90
2014,10,15,10,38,10.90
2014,10,15,10,39,10.90
2014,10,15,10,40,10.90
2014,10,15,10,41,10.90
2014,10,15,10,42,10.90
2014,10,15,10,43,10.90
2014,10,15,10,44,11.00
2014,10,15,10,45,11.00
2014,10,15,10,46,11.00
2014,10,15,10,47,11.00
2014,10,15,10,48,11.10
2014,10,15,10,49,11.10
2014,10,15,10,50,11.10
2014,10,15,10,51,11.10
2014,10,15,10,52,11.10
2014,10,15,10,53,11.10
2014,10,15,10,54,11.10
2014,10,15,10,55,11.20
2014,10,15,10,56,11.20
2014,10,15,10,57,11.20
2014,10,15,10,58,11.20
2014,10,15,10,59,11.20
2014,10,15,11,00,11.20
2014,10,15,11,01,11.30
2014,10,15,11,02,11.30
2014,10,15,11,03,11.30
2014,10,15,11,04,11.30
2014,10,15,11,05,11.30
2014,10,15,11,06,11.30
2014,10,15,11,07,11.30
2014,10,15,11,08,11.30
2014,10,15,11,09,11.30
2014,10,15,11,10,11.30
2014,10,15,11,11,11.30
2014,10,15,11,12,11.30
2014,10,15,11,13,11.40
2014,10,15,11,14,11.40
2014,10,15,11,15,11.40
2014,10,15,11,16,11.40
2014,10,15,11,17,11.40
2014,10,15,11,18,11.40
2014,10,15,11,19,11.40
2014,10,15,11,20,11.40
2014,10,15,11,21,11.50
2014,10,15,11,22,11.50
2014,10,15,11,23,11.60
2014,10,15,11,24,11.60
2014,10,15,11,25,11.60
2014,10,15,11,26,11.60
2014,10,15,11,27,11.60
2014,10,15,11,28,11.60
2014,10,15,11,29,11.60
2014,10,15,11,30,11.60
2014,10,15,11,31,11.60
2014,10,15,11,32,11.70
2014,10,15,11,33,11.70
2014,10,15,11,34,11.70
2014,10,15,11,35,11.70
2014,10,15,11,36,11.70
2014,10,15,11,37,11.60
2014,10,15,11,38,11.60
2014,10,15,11,39,11.60
2014,10,15,11,40,11.60
2014,10,15,11,41,11.60
2014,10,15,11,42,11.60
2014,10,15,11,43,11.60
2014,10,15,11,44,11.60
2014,10,15,11,45,11.60
2014,10,15,11,46,11.60
2014,10,15,11,47,11.60
2014,10,15,11,48,11.60
2014,10,15,11,49,11.60
2014,10,15,11,50,11.60
2014,10,15,11,51,11.60
2014,10,15,11,52,11.60
2014,10,15,11,53,11.70
2014,10,15,11,54,11.70
2014,10,15,11,55,11.70
2014,10,15,11,56,11.70
2014,10,15,11,57,11.70
2014,10,15,11,58,11.80
2014,10,15,11,59,11.80
2014,10,15,12,00,11.80
2014,10,15,12,01,11.80
2014,10,15,12,02,11.80
2014,10,15,12,03,11.70
2014,10,15,12,04,11.70
2014,10,15,12,05,11.70
2014,10,15,12,06,11.70
2014,10,15,12,07,11.70
2014,10,15,12,08,11.60
2014,10,15,12,09,11.60
2014,10,15,12,10,11.60
2014,10,15,12,11,11.60
2014,10,15,12,12,11.60
2014,10,15,12,13,11.60
2014,10,15,12,14,11.60
2014,10,15,12,15,11.60
2014,10,15,12,16,11.60
2014,10,15,12,17,11.60
2014,10,15,12,18,11.60
2014,10,15,12,19,11.60
2014,10,15,12,20,11.60
2014,10,15,12,21,11.60
2014,10,15,12,22,11.60
2014,10,15,12,23,11.60
2014,10,15,12,24,11.60
2014,10,15,12,25,11.60
2014,10,15,12,26,11.70
2014,10,15,12,27,11.70
2014,10,15,12,28,11.70
2014,10,15,12,29,11.70
2014,10,15,12,30,11.70
2014,10,15,12,31,11.70
2014,10,15,12,32,11.70
2014,10,15,12,33,11.70
2014,10,15,12,34,11.70
2014,10,15,12,35,11.70
2014,10,15,12,36,11.70
2014,10,15,12,37,11.70
2014,10,15,12,38,11.60
2014,10,15,12,39,11.60
2014,10,15,12,40,11.70
2014,10,15,12,41,11.70
2014,10,15,12,42,11.70
2014,10,15,12,43,11.70
2014,10,15,12,44,11.70
2014,10,15,12,45,11.70
2014,10,15,12,46,11.70
2014,10,15,12,47,11.70
2014,10,15,12,48,11.70
2014,10,15,12,49,11.70
2014,10,15,12,50,11.70
2014,10,15,12,51,11.80
2014,10,15,12,52,11.80
2014,10,15,12,53,11.80
2014,10,15,12,54,11.80
2014,10,15,12,55,11.80
2014,10,15,12,56,11.70
2014,10,15,12,57,11.70
2014,10,15,12,58,11.70
2014,10,15,12,59,11.70
2014,10,15,13,00,11.70
2014,10,15,13,01,11.70
2014,10,15,13,02,11.70
2014,10,15,13,03,11.70
2014,10,15,13,04,11.70
2014,10,15,13,05,11.70
2014,10,15,13,06,11.70
2014,10,15,13,07,11.70
2014,10,15,13,08,11.70
2014,10,15,13,09,11.70
2014,10,15,13,10,11.70
2014,10,15,13,11,11.70
2014,10,15,13,12,11.70
2014,10,15,13,13,11.70
2014,10,15,13,14,11.80
2014,10,15,13,15,11.80
2014,10,15,13,16,11.80
2014,10,15,13,17,11.80
2014,10,15,13,18,11.80
2014,10,15,13,19,11.80
2014,10,15,13,20,11.80
2014,10,15,13,21,11.80
2014,10,15,13,22,11.80
2014,10,15,13,23,11.80
2014,10,15,13,24,11.90
2014,10,15,13,25,11.90
2014,10,15,13,26,11.90
2014,10,15,13,27,11.80
2014,10,15,13,28,11.90
2014,10,15,13,29,11.80
2014,10,15,13,30,11.80
2014,10,15,13,31,11.90
2014,10,15,13,32,11.90
2014,10,15,13,33,11.80
2014,10,15,13,34,11.80
2014,10,15,13,35,11.80
2014,10,15,13,36,11.80
2014,10,15,13,37,11.80
2014,10,15,13,38,11.80
2014,10,15,13,39,11.80
2014,10,15,13,40,11.80
2014,10,15,13,41,11.70
2014,10,15,13,42,11.80
2014,10,15,13,43,11.80
2014,10,15,13,44,11.80
2014,10,15,13,45,11.80
2014,10,15,13,46,11.80
2014,10,15,13,47,11.80
2014,10,15,13,48,11.80
2014,10,15,13,49,11.80
2014,10,15,13,50,11.80
2014,10,15,13,51,11.80
2014,10,15,13,52,11.80
2014,10,15,13,53,11.80
2014,10,15,13,54,11.80
2014,10,15,13,55,11.80
2014,10,15,13,56,11.80
2014,10,15,13,57,11.80
2014,10,15,13,58,11.80
2014,10,15,13,59,11.80
2014,10,15,14,00,11.80
2014,10,15,14,01,11.80
2014,10,15,14,02,11.80
2014,10,15,14,03,11.90
2014,10,15,14,04,11.90
2014,10,15,14,05,11.90
2014,10,15,14,06,11.90
2014,10,15,14,07,11.90
2014,10,15,14,08,12.00
2014,10,15,14,09,12.00
2014,10,15,14,10,12.00
2014,10,15,14,11,12.00
2014,10,15,14,12,12.00
2014,10,15,14,13,12.00
2014,10,15,14,14,12.10
2014,10,15,14,15,12.10
2014,10,15,14,16,12.10
2014,10,15,14,17,12.10
2014,10,15,14,18,12.10
2014,10,15,14,19,12.00
2014,10,15,14,20,12.00
2014,10,15,14,21,12.00
2014,10,15,14,22,12.00
2014,10,15,14,23,12.00
2014,10,15,14,24,12.00
2014,10,15,14,25,12.00
2014,10,15,14,26,12.10
2014,10,15,14,27,12.10
2014,10,15,14,28,12.10
2014,10,15,14,29,12.00
2014,10,15,14,30,12.00
2014,10,15,14,31,11.90
2014,10,15,14,32,11.90
2014,10,15,14,33,11.90
2014,10,15,14,34,11.90
2014,10,15,14,35,11.90
2014,10,15,14,36,11.90
2014,10,15,14,37,11.90
2014,10,15,14,38,11.90
2014,10,15,14,39,12.00
2014,10,15,14,40,12.00
2014,10,15,14,41,12.00
2014,10,15,14,42,12.10
2014,10,15,14,43,12.10
2014,10,15,14,44,12.10
2014,10,15,14,45,12.20
2014,10,15,14,46,12.20
2014,10,15,14,47,12.20
2014,10,15,14,48,12.20
2014,10,15,14,49,12.20
2014,10,15,14,50,12.30
2014,10,15,14,51,12.30
2014,10,15,14,52,12.30
2014,10,15,14,53,12.30
2014,10,15,14,54,12.30
2014,10,15,14,55,12.40
2014,10,15,14,56,12.40
2014,10,15,14,57,12.40
2014,10,15,14,58,12.40
2014,10,15,14,59,12.40
2014,10,15,15,00,12.40
2014,10,15,15,01,12.40
2014,10,15,15,02,12.40
2014,10,15,15,03,12.40
2014,10,15,15,04,12.40
2014,10,15,15,05,12.40
2014,10,15,15,06,12.40
2014,10,15,15,07,12.40
2014,10,15,15,08,12.40
2014,10,15,15,09,12.40
2014,10,15,15,10,12.30
2014,10,15,15,11,12.30
2014,10,15,15,12,12.30
2014,10,15,15,13,12.30
2014,10,15,15,14,12.30
2014,10,15,15,15,12.30
2014,10,15,15,16,12.30
2014,10,15,15,17,12.30
2014,10,15,15,18,12.30
2014,10,15,15,19,12.30
2014,10,15,15,20,12.30
2014,10,15,15,21,12.30
2014,10,15,15,22,12.30
2014,10,15,15,23,12.30
2014,10,15,15,24,12.30
2014,10,15,15,25,12.40
2014,10,15,15,26,12.40
2014,10,15,15,27,12.40
2014,10,15,15,28,12.40
2014,10,15,15,29,12.40
2014,10,15,15,30,12.40
2014,10,15,15,31,12.40
2014,10,15,15,32,12.40
2014,10,15,15,33,12.40
2014,10,15,15,34,12.40
2014,10,15,15,35,12.40
2014,10,15,15,36,12.40
2014,10,15,15,37,12.50
2014,10,15,15,38,12.50
2014,10,15,15,39,12.50
2014,10,15,15,40,12.60
2014,10,15,15,41,12.60
2014,10,15,15,42,12.60
2014,10,15,15,43,12.60
2014,10,15,15,44,12.60
2014,10,15,15,45,12.60
2014,10,15,15,46,12.70
2014,10,15,15,47,12.70
2014,10,15,15,48,12.70
2014,10,15,15,49,12.70
2014,10,15,15,50,12.70
2014,10,15,15,51,12.80
2014,10,15,15,52,12.80
2014,10,15,15,53,12.80
2014,10,15,15,54,12.80
2014,10,15,15,55,12.90
2014,10,15,15,56,12.90
2014,10,15,15,57,12.90
2014,10,15,15,58,12.90
2014,10,15,15,59,12.90
2014,10,15,16,00,12.90
2014,10,15,16,01,12.90
2014,10,15,16,02,12.90
2014,10,15,16,03,12.90
2014,10,15,16,04,12.80
2014,10,15,16,05,12.90
2014,10,15,16,06,12.90
2014,10,15,16,07,12.90
2014,10,15,16,08,12.90
2014,10,15,16,09,12.90
2014,10,15,16,10,13.00
2014,10,15,16,11,13.00
2014,10,15,16,12,13.00
2014,10,15,16,13,13.00
2014,10,15,16,14,13.00
2014,10,15,16,15,13.10
2014,10,15,16,16,13.10
2014,10,15,16,17,13.10
2014,10,15,16,18,13.10
2014,10,15,16,19,13.10
2014,10,15,16,20,13.10
2014,10,15,16,21,13.10
2014,10,15,16,22,13.20
2014,10,15,16,23,13.20
2014,10,15,16,24,13.20
2014,10,15,16,25,13.20
2014,10,15,16,26,13.20
2014,10,15,16,27,13.20
2014,10,15,16,28,13.20
2014,10,15,16,29,13.20
2014,10,15,16,30,13.20
2014,10,15,16,31,13.20
2014,10,15,16,32,13.20
2014,10,15,16,33,13.20
2014,10,15,16,34,13.10
2014,10,15,16,35,13.10
2014,10,15,16,36,13.10
2014,10,15,16,37,13.10
2014,10,15,16,38,13.10
2014,10,15,16,39,13.10
2014,10,15,16,40,13.10
2014,10,15,16,41,13.20
2014,10,15,16,42,13.20
2014,10,15,16,43,13.20
2014,10,15,16,44,13.20
2014,10,15,16,45,13.20
2014,10,15,16,46,13.20
2014,10,15,16,47,13.20
2014,10,15,16,48,13.20
2014,10,15,16,49,13.20
2014,10,15,16,50,13.20
2014,10,15,16,51,13.20
2014,10,15,16,52,13.10
2014,10,15,16,53,13.10
2014,10,15,16,54,13.10
2014,10,15,16,55,13.10
2014,10,15,16,56,13.10
2014,10,15,16,57,13.10
2014,10,15,16,58,13.10
2014,10,15,16,59,13.00
2014,10,15,17,00,13.00
2014,10,15,17,01,13.00
2014,10,15,17,02,13.00
2014,10,15,17,03,13.00
2014,10,15,17,04,13.00
2014,10,15,17,05,13.10
2014,10,15,17,06,13.10
2014,10,15,17,07,13.10
2014,10,15,17,08,13.20
2014,10,15,17,09,13.20
2014,10,15,17,10,13.20
2014,10,15,17,11,13.20
2014,10,15,17,12,13.20
2014,10,15,17,13,13.20
2014,10,15,17,14,13.20
2014,10,15,17,15,13.30
2014,10,15,17,16,13.30
2014,10,15,17,17,13.20
2014,10,15,17,18,13.20
2014,10,15,17,19,13.20
2014,10,15,17,20,13.20
2014,10,15,17,21,13.20
2014,10,15,17,22,13.20
2014,10,15,17,23,13.30
2014,10,15,17,24,13.30
2014,10,15,17,25,13.30